Torna al catalogo

STARLINK-35773

AttivoComunicazioniVLEO
NORAD 67042·PAYLOAD·🇺🇸 United States

Lanciato Dec 11, 2025 da Cape Canaveral Space Force Station

Loading…

Prossimi Passaggi (prossime 24 ore)

TLE

AggiornatoSource: CelesTrak SupGP

Epoca: Sep 15, 2026, 04:05 UTC

1 67042C 25294N   26258.17062500 -.00169820  00000+0 -61481-2 0  2582
2 67042  43.0045  48.0110 0001790 274.6365 227.7272 15.27677486    14

Traccia STARLINK-35773 in tempo reale con AllMySat

Download on the App Store